Flag for U.S.A. Weather past 2 weeks in Shreveport, Louisiana, U.S.A.

Now
71 °F

Scattered clouds.


Feels Like: 77 °F
Forecast: 49 / 75 °F
Wind: 5 mph from North

Location: Shreveport Regional Airport

Current Time: Apr 21, 2015 at 2:48:16 PM

Latest Report: Apr 21, 2015 at 1:56 PM


Visibility: 10 mi

Pressure: 30.03 "Hg

Humidity: 42%

Dew point: 47 °F

Location of ShreveportLocation

Historic Weather in Shreveport — Graph

°F

Shreveport temperature yesterday

Maximum temperature yesterday: 72 °F (at 4:56 PM)
Minimum temperature yesterday: 53 °F (at 6:56 AM)
Average temperature yesterday: 62 °F

Past Weeks' High & Low Weather Summary

 TemperatureHumidityPressure
High85 °F (Apr 7, 3:56 PM)100% (Apr 15, 2:56 AM)30.16 "Hg (Apr 15, 2:56 AM)
Low48 °F (Apr 11, 3:56 AM)29% (Apr 20, 4:56 PM)29.64 "Hg (Apr 19, 5:56 PM)
Average68 °F77%29.95 "Hg
* Reported Apr 6 12:56 PM — Apr 21 12:56 PM, Shreveport, Weather by CustomWeather, © 2015

Note: Actual official high and low records may vary slightly from our data, if they occured in-between our weather recording intervals... More about our weather records

Advertising

Shreveport weather history for previous 24 hours

 ConditionsComfort  
Time TempWeatherWind HumidityBarometerVisibility
12:56 PM
Tue, Apr 21
68 °FPartly sunny.6 mph42%30.04 "Hg10 mi
11:56 AM66 °FPartly sunny.9 mph43%30.04 "Hg10 mi
10:56 AM64 °FPassing clouds.13 mph49%30.05 "Hg10 mi
9:56 AM59 °FOvercast.5 mph64%30.06 "Hg10 mi
8:56 AM57 °FPartly sunny.5 mph72%30.04 "Hg10 mi
7:56 AM55 °FOvercast.6 mph80%30.03 "Hg10 mi
6:56 AM51 °FPassing clouds.No wind89%30.02 "Hg10 mi
5:56 AM52 °FPassing clouds.No wind86%30.01 "Hg10 mi
4:56 AM50 °FPassing clouds.No wind89%30.01 "Hg10 mi
3:56 AM52 °FPassing clouds.No wind83%30.01 "Hg10 mi
2:56 AM51 °FPassing clouds.No wind86%30.01 "Hg10 mi
1:56 AM53 °FPassing clouds.No wind83%30.02 "Hg10 mi
12:56 AM53 °FPassing clouds.No wind86%30.01 "Hg10 mi
11:56 PM
Mon, Apr 20
56 °FPassing clouds.No wind72%29.99 "Hg10 mi
10:56 PM56 °FPassing clouds.No wind72%29.99 "Hg10 mi
9:56 PM57 °FClear.No wind74%29.98 "Hg10 mi
8:56 PM60 °FPassing clouds.No wind60%29.96 "Hg10 mi
7:56 PM65 °FPartly sunny.5 mph44%29.93 "Hg10 mi
6:56 PM69 °FSunny.8 mph31%29.92 "Hg10 mi
5:56 PM70 °FPassing clouds.10 mph30%29.92 "Hg10 mi
4:56 PM72 °FPassing clouds.13 mph29%29.91 "Hg10 mi
3:56 PM71 °FPassing clouds.10 mph30%29.92 "Hg10 mi
2:56 PM70 °FPassing clouds.14 mph31%29.93 "Hg10 mi
Weather by CustomWeather, © 2015

See weather overviewHow to use our weather pages